Date String (YYYY-MM-DD hh:mm:ss) UTC,Instrument flags,Ambient pressure (hPa),Sample flow (lpm),Bypass flow (lpm),Sample temperature (°C),Ambient temperature (°C),ASC tube jacket temperature (°C),LED temperature (°C),Box temperature (°C),Sample RH (%),Span deviation,Mass concentration (μg/m³),Mass concentration (μg/m³),Mass concentration (μg/m³)
DateTimeUTC,F1_M11,P_M11,Q1_M11,Q2_M11,T1_M11,T2_M11,T3_M11,T4_M11,T5_M11,U1_M11,ZSPAN_M11,X0_M11,X2_M11,X1_M11
2021-10-30 16:00:00,,0825.2,5.00,0.00,30.3,29.6,00.0,39.2,32.2,09.7,0000.0,0009.99,0001.77,0000.74
2021-10-30 16:01:00,,0825.2,5.00,0.00,30.3,29.5,00.0,39.2,32.2,09.6,0000.0,0010.17,0001.80,0000.75
2021-10-30 16:02:00,,0825.2,5.00,0.00,30.3,29.5,00.0,39.3,32.1,09.7,0000.0,0012.20,0001.89,0000.76
2021-10-30 16:03:00,,0825.2,5.00,0.00,30.3,29.5,00.0,39.3,32.1,09.7,0000.0,0012.61,0001.95,0000.76
2021-10-30 16:04:00,,0825.2,5.00,0.00,30.3,29.6,00.0,39.3,32.1,09.6,0000.0,0012.61,0002.01,0000.76
2021-10-30 16:05:00,,0825.2,5.01,0.00,30.4,29.6,00.0,39.3,32.1,09.5,0000.0,0012.72,0002.01,0000.77
2021-10-30 16:06:00,,0825.2,5.00,0.00,30.4,29.6,00.0,39.3,32.1,09.5,0000.0,0012.76,0002.07,0000.77
2021-10-30 16:07:00,,0825.2,5.01,0.00,30.4,29.6,00.0,39.3,32.1,09.5,0000.0,0012.04,0002.06,0000.76
2021-10-30 16:08:00,,0825.2,5.00,0.00,30.4,29.6,00.0,39.3,32.1,09.4,0000.0,0011.62,0001.94,0000.74
2021-10-30 16:09:00,,0825.2,5.00,0.00,30.4,29.6,00.0,39.3,32.1,09.6,0000.0,0010.66,0001.89,0000.74
2021-10-30 16:10:00,,0825.2,5.00,0.00,30.4,29.6,00.0,39.3,32.2,09.6,0000.0,0010.64,0001.91,0000.75
2021-10-30 16:11:00,,0825.2,4.99,0.00,30.4,29.6,00.0,39.4,32.2,09.6,0000.0,0010.34,0001.88,0000.73
2021-10-30 16:12:00,,0825.2,5.01,0.00,30.4,29.6,00.0,39.4,32.2,09.4,0000.0,0010.58,0001.96,0000.73
2021-10-30 16:13:00,,0825.2,5.00,0.00,30.4,29.6,00.0,39.4,32.2,09.4,0000.0,0008.51,0001.96,0000.73
2021-10-30 16:14:00,,0825.2,4.99,0.00,30.4,29.6,00.0,39.4,32.2,09.4,0000.0,0008.24,0001.95,0000.73
2021-10-30 16:15:00,,0825.2,5.00,0.00,30.4,29.6,00.0,39.4,32.2,09.4,0000.0,0008.14,0001.94,0000.73
2021-10-30 16:16:00,,0825.2,5.01,0.00,30.4,29.6,00.0,39.4,32.1,09.4,0000.0,0008.02,0001.88,0000.73
2021-10-30 16:17:00,,0825.2,4.99,0.00,30.4,29.6,00.0,39.4,32.1,09.7,0000.0,0008.50,0001.78,0000.73
2021-10-30 16:18:00,,0825.2,5.00,0.00,30.4,29.6,00.0,39.4,32.2,09.7,0000.0,0008.39,0001.78,0000.73
2021-10-30 16:19:00,,0825.2,5.00,0.00,30.4,29.6,00.0,39.4,32.2,09.6,0000.0,0008.36,0001.73,0000.74
2021-10-30 16:20:00,,0825.2,5.01,0.00,30.4,29.6,00.0,39.4,32.2,09.7,0000.0,0008.56,0001.72,0000.75
2021-10-30 16:21:00,,0825.3,4.99,0.00,30.4,29.6,00.0,39.4,32.1,09.8,0000.0,0008.42,0001.67,0000.74
2021-10-30 16:22:00,,0825.3,5.00,0.00,30.4,29.6,00.0,39.4,32.1,09.8,0000.0,0007.97,0001.70,0000.76
2021-10-30 16:23:00,,0825.3,5.00,0.00,30.5,29.7,00.0,39.4,32.2,09.6,0000.0,0006.85,0001.62,0000.78
2021-10-30 16:24:00,,0825.2,5.00,0.00,30.5,29.7,00.0,39.4,32.2,09.4,0000.0,0006.41,0001.53,0000.77
2021-10-30 16:25:00,,0825.2,5.00,0.00,30.5,29.7,00.0,39.4,32.2,09.1,0000.0,0006.22,0001.47,0000.77
2021-10-30 16:26:00,,0825.2,4.98,0.00,30.5,29.7,00.0,39.4,32.2,09.3,0000.0,0008.04,0001.43,0000.77
2021-10-30 16:27:00,,0825.2,5.00,0.00,30.5,29.8,00.0,39.5,32.3,09.3,0000.0,0008.23,0001.47,0000.78
2021-10-30 16:28:00,,0825.2,5.00,0.00,30.5,29.8,00.0,39.5,32.3,09.4,0000.0,0007.46,0001.56,0000.78
2021-10-30 16:29:00,,0825.2,5.00,0.00,30.6,29.8,00.0,39.5,32.3,09.3,0000.0,0007.63,0001.58,0000.79
2021-10-30 16:30:00,,0825.2,4.98,0.00,30.6,29.8,00.0,39.5,32.3,09.3,0000.0,0008.22,0001.65,0000.82
2021-10-30 16:31:00,,0825.3,5.01,0.00,30.6,29.8,00.0,39.5,32.4,09.6,0000.0,0008.12,0001.71,0000.84
2021-10-30 16:32:00,,0825.2,5.00,0.00,30.6,29.9,00.0,39.5,32.3,09.6,0000.0,0008.77,0001.75,0000.85
2021-10-30 16:33:00,,0825.2,5.00,0.00,30.6,29.9,00.0,39.6,32.4,09.6,0000.0,0008.78,0001.74,0000.85
2021-10-30 16:34:00,,0825.2,5.01,0.00,30.6,29.9,00.0,39.6,32.4,09.6,0000.0,0008.91,0001.82,0000.85
2021-10-30 16:35:00,,0825.2,4.99,0.00,30.7,29.9,00.0,39.6,32.4,09.1,0000.0,0008.96,0001.82,0000.84
2021-10-30 16:36:00,,0825.2,5.00,0.00,30.7,29.9,00.0,39.6,32.4,09.0,0000.0,0009.14,0001.82,0000.84
2021-10-30 16:37:00,,0825.2,5.00,0.00,30.7,30.0,00.0,39.6,32.4,09.0,0000.0,0008.01,0001.77,0000.83
2021-10-30 16:38:00,,0825.2,5.00,0.00,30.7,30.0,00.0,39.6,32.5,08.9,0000.0,0008.53,0001.74,0000.81
2021-10-30 16:39:00,,0825.2,5.01,0.00,30.7,30.0,00.0,39.7,32.5,08.9,0000.0,0010.28,0001.69,0000.79
2021-10-30 16:40:00,,0825.2,5.00,0.00,30.7,30.0,00.0,39.7,32.5,09.0,0000.0,0010.31,0001.67,0000.77
2021-10-30 16:41:00,,0825.2,4.99,0.00,30.7,30.0,00.0,39.7,32.5,09.0,0000.0,0009.67,0001.64,0000.74
2021-10-30 16:42:00,,0825.2,5.00,0.00,30.7,28.7,00.0,39.7,32.3,09.1,0000.0,0009.71,0001.60,0000.72
2021-10-30 16:43:00,,0825.2,5.00,0.00,30.6,26.7,00.0,39.7,31.9,09.1,0000.0,0009.67,0001.54,0000.69
2021-10-30 16:44:00,,0825.2,5.00,0.00,30.5,26.2,00.0,39.6,31.8,09.1,0000.0,0010.03,0001.53,0000.67
2021-10-30 16:45:00,,0825.2,5.01,0.00,30.4,26.7,00.0,39.5,31.7,09.2,0000.0,0009.90,0001.45,0000.66
2021-10-30 16:46:00,,0825.2,5.00,0.00,30.3,27.1,00.0,39.5,31.7,09.3,0000.0,0009.78,0001.45,0000.66
2021-10-30 16:47:00,,0825.2,5.00,0.00,30.2,27.6,00.0,39.4,31.7,09.4,0000.0,0009.66,0001.47,0000.66
2021-10-30 16:48:00,,0825.2,4.99,0.00,30.2,27.9,00.0,39.4,31.7,09.4,0000.0,0010.00,0001.49,0000.68
2021-10-30 16:49:00,,0825.3,5.01,0.00,30.2,28.2,00.0,39.3,31.8,09.5,0000.0,0009.94,0001.54,0000.68
2021-10-30 16:50:00,,0825.3,5.01,0.00,30.2,28.5,00.0,39.3,31.8,09.6,0000.0,0008.70,0001.57,0000.70
2021-10-30 16:51:00,,0825.2,4.98,0.00,30.2,28.6,00.0,39.3,31.9,09.4,0000.0,0008.91,0001.55,0000.71
2021-10-30 16:52:00,,0825.2,5.01,0.00,30.2,28.8,00.0,39.3,31.9,09.7,0000.0,0009.00,0001.53,0000.72
2021-10-30 16:53:00,,0825.2,5.00,0.00,30.2,28.9,00.0,39.3,31.9,09.6,0000.0,0009.22,0001.51,0000.73
2021-10-30 16:54:00,,0825.2,4.99,0.00,30.2,29.0,00.0,39.3,32.0,09.6,0000.0,0008.83,0001.45,0000.73
2021-10-30 16:55:00,,0825.2,5.01,0.00,30.2,29.1,00.0,39.3,32.0,09.9,0000.0,0008.71,0001.46,0000.75
2021-10-30 16:56:00,,0825.2,4.99,0.00,30.3,29.2,00.0,39.3,32.0,09.9,0000.0,0008.70,0001.52,0000.77
2021-10-30 16:57:00,,0825.3,5.00,0.00,30.3,29.2,00.0,39.3,32.0,09.9,0000.0,0008.75,0001.58,0000.79
2021-10-30 16:58:00,,0825.2,4.99,0.00,30.3,29.3,00.0,39.3,32.1,09.9,0000.0,0008.74,0001.58,0000.81
2021-10-30 16:59:00,,0825.2,5.00,0.00,30.3,29.3,00.0,39.3,32.0,09.8,0000.0,0008.73,0001.63,0000.82
